Regional Weather Roundup
Issued by NWS

Home | Current Version | Previous Version | Text Only | Print | Product List | Glossary Off
Versions: 1 2 3 4 5 6 7 8 9 10 11 12 13 14 15 16 17 18 19 20 21 22 23 24 25 26 27 28 29 30 31 32 33 34 35 36 37 38 39 40 41 42 43 44 45 46 47 48 49 50

000
ASUS43 KMKX 280521
RWRWI

WISCONSIN REGIONAL WEATHER ROUNDUP
NATIONAL WEATHER SERVICE MILWAUKEE/SULLIVAN WI
1200 AM CDT MON JUL 28 2014

NOTE: "FAIR" INDICATES FEW OR NO CLOUDS BELOW 12,000 FEET WITH NO
SIGNIFICANT WEATHER AND/OR OBSTRUCTIONS TO VISIBILITY.

WIZ001-002-006>008-014>016-023>028-280600-
NORTHWEST WISCONSIN

CITY           SKY/WX    TMP DP  RH WIND       PRES   REMARKS
SUPERIOR ARPT  MOCLDY    60  56  85 N7        30.10R
ASHLAND        CLEAR     51  50  96 W3        30.11R
HAYWARD        PTCLDY    51  50  96 N3        30.11R
SIREN          CLEAR     56  54  93 NW3       30.12R
RICE LAKE      MOCLDY    55  53  92 CALM      30.12S
LADYSMITH      MOCLDY    56  52  86 NW7       30.12R
EAU CLAIRE     CLEAR     56  52  86 NW7       30.09R
MENOMONIE      CLEAR     57  54  88 W3        30.11R
NEW RICHMOND   CLOUDY    60  57  91 NW5       30.12S
OSCEOLA        CLOUDY    61  59  93 CALM      30.15R
$$

WIZ003>005-009-010-017-018-280600-
NORTH CENTRAL WISCONSIN

CITY           SKY/WX    TMP DP  RH WIND       PRES   REMARKS
WOODRUFF       CLEAR     52  49  91 N3        30.07R
RHINELANDER    CLEAR     53  50  89 N3        30.06S
EAGLE RIVER    PTCLDY    50  49  95 NW5       30.05S
LAND O LAKES   PTCLDY    55  49  82 N8        30.07S
PHILLIPS       CLEAR     51  50  97 CALM      30.09R
TOMAHAWK       CLEAR     50  48  93 NW3       30.07R
MEDFORD        CLEAR     52  50  93 NW7       30.07S
MERRILL        CLEAR     52  50  93 NW5       30.05S
$$

WIZ029-030-035-036-043>047-280600-
CENTRAL WISCONSIN

CITY           SKY/WX    TMP DP  RH WIND       PRES   REMARKS
WAUSAU         CLEAR     57  51  80 NW7       30.04R
MOSINEE        CLEAR     54  52  94 NW6       30.06R
MARSHFIELD     CLEAR     54  51  90 NW8       30.06R
STEVENS POINT  CLEAR     54  50  87 N3        30.04R
WAUPACA        CLEAR     58  52  79 N3        30.01S
WAUTOMA        CLEAR     58  53  83 NW6       30.03R
WISC RAPIDS    CLEAR     57  53  86 MISG      30.05R
CAMP DOUGLAS   CLEAR     55  55 100 NW6       30.06R
$$

WIZ011>013-019>022-031-037>040-048>050-280600-
NORTHEAST WISCONSIN

CITY           SKY/WX    TMP DP  RH WIND       PRES   REMARKS
ANTIGO         CLEAR     52  49  92 N7        30.04R
STURGEON BAY   CLEAR     57  46  67 N20G28    29.97R
GREEN BAY      CLEAR     57  51  80 N9        29.98R
MANITOWOC      PTCLDY    61  50  67 N12       29.95R
APPLETON       CLEAR     55  50  82 N10       29.99R
CLINTONVILLE   CLEAR     57  50  77 NW8       30.01R
OSHKOSH        CLEAR     60  53  77 N12       29.98R
$$

WIZ032>034-041-042-053>061-280600-
SOUTHWEST WISCONSIN

CITY           SKY/WX    TMP DP  RH WIND       PRES   REMARKS
LA CROSSE      CLEAR     61  55  81 N7        30.07R
SPARTA         CLEAR     58  52  81 N3        30.07S
VIROQUA        FAIR      59  55  85 N9        30.06R
BOSCOBEL       CLOUDY    66  57  72 N6G16     30.03R
PRAIRIE DU CHI CLEAR     66  56  71 N8        30.03R
PLATTEVILLE    CLOUDY    64  60  87 N10       30.01S
$$

WIZ056-057-062-063-064-067-068-280600-
SOUTH CENTRAL WISCONSIN

CITY           SKY/WX    TMP DP  RH WIND       PRES   REMARKS
BARABOO/DELLS  CLEAR     61  52  73 N6        30.03R
LONE ROCK      MOCLDY    68  56  65 N13       30.02R
WATERTOWN      CLEAR     60  55  85 N10       29.97R
MADISON        PTCLDY    62  54  74 N12       30.00R
MIDDLETON      FAIR      62  59  90 N8        30.01R
MONROE         CLOUDY    63  57  82 N15G23    29.98R
JANESVILLE     MOCLDY    64  54  68 N10G17    29.96R
$$

WIZ051-052-058>065-066-070>072-280600-
SOUTHEAST WISCONSIN

CITY           SKY/WX    TMP DP  RH WIND       PRES   REMARKS
MILWAUKEE      PTCLDY    63  53  70 N10       29.94R
WAUKESHA       CLEAR     59  50  72 NW6       29.97R
MILWAUKEE/TIMM CLEAR     59  50  72 N7        29.95S
RACINE         CLOUDY    63  53  70 N15       29.94R
BURLINGTON     CLEAR     59  53  79 N10       29.95R
KENOSHA        CLOUDY    64  53  67 N12       29.93R
FOND DU LAC    PTCLDY    60  53  77 N10       29.98R
SHEBOYGAN      CLEAR     61  50  67 N14G23    29.94R
WEST BEND      CLEAR     59  50  72 NW9       29.95S
JUNEAU         CLEAR     58  53  81 NW8       29.99R
$$

LSZ147-162-280600-
LAKE SUPERIOR

STATION/POSITION TIME  TEMP    WIND        PRES    WAVE
                       AIR SEA DIR/SP/G            HT/PER
                 (UTC) (F)     (DEG/KT/KT) (MB)    (FT/S)
W MID LAKE BUOY  0450   48 43  290/  8/  8 1018.7R   1/ 4
PORT WING        0440   56     150/  2/  3 1019.3R
SAXON HARBOR     0400           CALM  /  2 1018.6S
$$

LMZ867-665-643>646-280600-
LAKE MICHIGAN

STATION/POSITION TIME  TEMP    WIND        PRES    WAVE
                       AIR SEA DIR/SP/G            HT/PER
                 (UTC) (F)     (DEG/KT/KT) (MB)    (FT/S)
N MID LAKE BUOY  0450   56 55  350/ 19/ 23 1012.5R   4/ 5
NORTHPORT PIER   0501   58     340/ 21/ 25 1014.6R
KEWAUNEE LAKESHO 0500   60     350/ 12/ 17 1014.8R
SHEBOYGAN LAKESH 0500   58     350/ 17/ 18 1013.7R
PORT WASHINGTON  0400   64     340/  5/ 10 1013.9
ATWATER BUOY     0500   63     340/ 14     1014.5R
MILWAUKEE LAKESH 0500   63     340/ 11/ 14   N/A
S MID LAKE BUOY  0450   62 61  340/ 23/ 29 1010.8R   7/ 7
KENOSHA   LAKESH 0500   64     340/ 17/ 24 1012.9R
$$

TC  - TEMPERATURE IN CELSIUS
VSB - VISIBILITY IN STATUTE MILES
WCI - WIND CHILL INDEX
HX  - HEAT INDEX




USA.gov is the U.S. government's official web portal to all federal, state and local government web resources and services.